CZ-3C DEB, 40863

Orbit data source: Space-Track

CZ-3C DEB, 40863 is space debris in HEO originally from a launch on Fri, 24 Feb 2012 UTC launched from the Xichang Space Center, China (XSC). Debris objects in space refer to the collection of defunct objects orbiting the Earth. Examples of debris include non-operational satellites, rocket bodies, and fragments generated from explosions, collisions, or faulty payload assembly.

Loading next visibility...
Identifier
40863, 2012-008AD
Orbit
HEO
Country
Flag of CNCN / PRC
Related business
Manufacturer
CALT
Mission
Spacecraft
Bus & Motor
Unknown
Mass
Unknown
Launch date (UTC)
2012-02-24 (14 years ago)
Launch vehicle
Unknown
Launch site
Xichang Space Center, China (XSC)
Object type
Payload
Rocket body
Debris
Shape & HBR
Unknown shape, 0.2 m
Radar Cross Section
Medium (>0.1 m² and <1 m²)

Expand to show TLE details & history
Last TLE update: 1 week ago

TLE from 1 week ago
0 CZ-3C DEB
1 40863U 12008AD  26165.57782005  .00000002  00000-0  00000+0 0  9997
2 40863  20.3873 190.4929 7071904 245.1856  28.8497  2.20873085 92182
Epoch: 2026-06-14T13:52Z
TLE epoch observation values (Epoch: 2026-06-14T13:52:03.652Z)
Latitude
-0.00003°
Longitude
79.62997°
Altitude
11,299.66 km
Speed
5.393 km/s
True Right ascension
12h 42m 05s
True Declination
0° 00' 00"
Sunlit
Object was in daylight at epoch
Visualization orbit readout
Latitude
Unknown
Longitude
Unknown
Altitude
Unknown
Speed
Unknown
Apparent Right ascension
Unknown
Apparent Declination
Unknown
Sunlit
N/A
Visualization observer readout
Local Sidereal Time
23:27:23
Azimuth
Unknown
Elevation
Unknown
Doppler factor
Unknown
Orbital elements
Apogee altitude
36,148.421 km
Perigee altitude
915.826 km
Semi-major axis
24,910.261 km
Eccentricity
0.70719
Inclination
20.3873°
RAAN
190.4929°
Arg. of periapsis
245.1856°
True anomaly
114.75883°
Mean anomaly
28.8497°
Eccentric anomaly
65.81115°
Mean motion
0.55205 °/min
Orbital period
652.12 mins
BSTAR
0
Loading maneuver chart data...
Computing Atmospheric mass density...
Loading historical data...
Loading historical data...
Loading historical data...
Loading historical data...
Loading historical data...
Loading historical data...
Loading historical data...

Documentation

Showing up to 5 results
|